Tracking 31027 objects as of 19-Jul-2025
HD Live streaming from Space Station
objects crossing your sky now

STARLINK-30108

Track STARLINK-30108 now!
10-day predictions
STARLINK-30108 is classified as:


NORAD ID: 56299
Int'l Code: 2023-056P
Perigee: 565.3 km
Apogee: 567.1 km
Inclination: 43.0 °
Period: 95.8 minutes
Semi major axis: 6937 km
RCS: Unknown
Launch date: April 19, 2023
Source: United States (US)
Launch site: AIR FORCE EASTERN TEST RANGE (AFETR)
Your satellite tracking list
ABS 3
Track 1 satellite(s)




NASA's NSSDC Master Catalog

Two Line Element Set (TLE):
1 56299U 23056P   25199.53664403  .00000038  00000-0  17902-4 0  9998
2 56299  43.0045  30.1833 0001323 259.5985 100.4708 15.02535594125006
Source of the keplerian elements: AFSPC